Back to catalog

SL-8 DEB

AliveLEO
NORAD 25085·DEBRIS·🇷🇺 Russia

Launched Feb 12, 1991 from Plesetsk Cosmodrome

Loading…

Next Passes (next 24 hours)

TLE

FreshSource: Space-Track

Epoch: Sep 13, 2026, 12:53 UTC

1 25085U 91009CX  26256.53686134  .00000173  00000-0  16245-2 0  9997
2 25085  74.1073  98.5657 0178747 354.9077  30.8733 12.24483562421865

Track SL-8 DEB in real time with AllMySat

Download on the App Store